Simultaneous Nadir Overpasses (SNOs) Predictions

Prediction of SNOs between AURA and NPP Satellite Orbit:

Table of predicted SNOs for the next 14.0 days since TLE Epoch: 5/11/2024
Index Date (AURA) Time (AURA) Lat,Lon (AURA) SZA (AURA ) Date (NPP) Time (NPP) Lat,Lon (NPP) SZA (NPP ) Distance(km) Time Diff (sec)
1 05/11/2024 13:12:49 80.58,-110.03 72.31 05/11/2024 13:12:31 80.58,-110.03 72.33 0.19 18
2 05/11/2024 14:02:11 -80.63, 58.23 107.80 05/11/2024 14:03:14 -80.63, 58.10 107.82 2.36 63
3 05/14/2024 02:57:22 -80.61,-135.83 108.37 05/14/2024 02:57:07 -80.61,-135.69 108.39 2.57 15
4 05/14/2024 03:46:43 80.68, 32.62 71.49 05/14/2024 03:47:48 80.68, 32.76 71.43 2.56 65
5 05/16/2024 16:41:55 80.59,-162.12 71.07 05/16/2024 16:41:45 80.59,-162.21 71.09 1.78 10
6 05/16/2024 17:31:16 -80.68, 6.51 109.10 05/16/2024 17:32:26 -80.69, 6.65 109.17 2.62 70
7 05/19/2024 06:26:25 -80.63, 172.15 109.55 05/19/2024 06:26:21 -80.63, 172.25 109.56 1.94 4
8 05/21/2024 19:23:10 -76.66, -45.45 104.55 05/21/2024 19:21:57 -77.04, -47.70 104.23 71.19 73
9 05/21/2024 20:10:54 80.61, 145.82 69.98 05/21/2024 20:10:58 80.61, 145.78 69.99 0.79 4
10 05/24/2024 09:05:59 80.55, -48.52 69.62 05/24/2024 09:04:52 80.55, -48.54 69.67 0.44 67



Historial Predications of SNOs between AURA and NPP
